Location: Claremont
(33.9858°S, 18.4575°E)
Time: 09:49:42
(UTC+00:00)

Cosmos 1850 Rocket - Pass Details

Date: 03 March 2021
Orbit: 754 x 785 km, 74.0° (Epoch: 19 April)

Event Time Altitude Azimuth Distance (km) Brightness Sun altitude
Rises 17:46:04 0° 342° (NNW) 3,233 7.3 -6.2°
Reaches altitude 10° 17:48:25 10° 340° (NNW) 2,319 6.6 -6.7°
Maximum altitude 17:53:42 80° 254° (WSW) 802 4.3 -7.7°
Drops below altitude 10° 17:59:06 10° 165° (SSE) 2,366 6.5 -8.8°
Sets 18:01:32 0° 164° (SSE) 3,305 7.3 -9.3°
